Weather History for Fort Leonard Wood, MO

Change the Weather History Date:

Saturday, May 25, 2013

  Actual Average Record
Temperature  
Mean Temperature 62 °F -  
Max Temperature 77 °F 75 °F 92 °F (2012)
Min Temperature 47 °F 58 °F 42 °F (2001)
Degree Days  
Heating Degree Days 4    
Growing Degree Days 12 (Base 50)    
Moisture  
Dew Point 54 °F    
Average Humidity 71    
Maximum Humidity 88    
Minimum Humidity 53    
Precipitation  
Precipitation 0.00 in - - ()
Sea Level Pressure  
Sea Level Pressure 30.20 in    
Wind  
Wind Speed 7 mph (SSE)    
Max Wind Speed 13 mph    
Max Gust Speed 20 mph    
Visibility 10 miles    
Events      
Averages and records for this station are not official NWS values.
T = Trace of Precipitation, MM = Missing Value Source: NWS Daily Summary

Daily Weather History Graph

Daily Weather History Graph

Search for Another Location

Airport:

Trip Planner

Search our weather history database for the weather conditions in past years. The results will help you decide how hot, cold, wet, or windy it might be!

Date:

Astronomy

May. 25, 2013 Rise Set
Actual Time 5:51 AM CDT 8:19 PM CDT
Civil Twilight 5:21 AM CDT 8:50 PM CDT
Nautical Twilight 4:44 AM CDT 9:27 PM CDT
Astronomical Twilight 4:02 AM CDT 10:09 PM CDT
Moon 9:08 PM CDT (5/25) 6:18 AM CDT (5/25)
Length of Visible Light 15h 28m
Length of Day
14h 28m
Full, 100% of the Moon is Illuminated
May 25
Full
May 31
Last Quarter
Jun 8
New
Jun 16
First Quarter
Jun 23
Full

Hourly Weather History & Observations

Time (CDT) Temp. Dew Point Humidity Pressure Visibility Wind Dir Wind Speed Gust Speed Precip Events Conditions
12:58 AM 50.2 °F 44.2 °F 80% 30.26 in 10.0 mi SE 5.8 mph - N/A   Clear
1:58 AM 48.7 °F 44.1 °F 84% 30.25 in 10.0 mi SE 6.9 mph - N/A   Clear
2:58 AM 49.1 °F 43.5 °F 81% 30.24 in 10.0 mi ESE 5.8 mph - N/A   Clear
3:58 AM 48.2 °F 43.7 °F 84% 30.23 in 10.0 mi SE 6.9 mph - N/A   Clear
4:58 AM 47.8 °F 43.2 °F 84% 30.24 in 10.0 mi SSE 4.6 mph - N/A   Clear
5:58 AM 48.9 °F 43.3 °F 81% 30.26 in 10.0 mi SSE 5.8 mph - N/A   Clear
6:58 AM 50.5 °F 44.4 °F 80% 30.26 in 10.0 mi SE 8.1 mph - N/A   Mostly Cloudy
7:58 AM 56.3 °F 46.8 °F 70% 30.25 in 10.0 mi SSE 8.1 mph - N/A   Clear
8:58 AM 61.0 °F 49.8 °F 67% 30.26 in 10.0 mi SSE 6.9 mph - N/A   Scattered Clouds
9:58 AM 65.1 °F 50.9 °F 60% 30.24 in 10.0 mi SSE 10.4 mph 19.6 mph N/A   Partly Cloudy
10:58 AM 70.5 °F 52.7 °F 53% 30.25 in 10.0 mi South 11.5 mph 17.3 mph N/A   Scattered Clouds
11:58 AM 71.6 °F 54.3 °F 54% 30.24 in 10.0 mi South 9.2 mph - N/A   Scattered Clouds
12:58 PM 71.2 °F 55.6 °F 58% 30.22 in 10.0 mi SSE 12.7 mph 17.3 mph N/A   Mostly Cloudy
1:58 PM 74.1 °F 57.6 °F 56% 30.21 in 10.0 mi SSE 6.9 mph - N/A   Scattered Clouds
2:58 PM 74.5 °F 59.2 °F 59% 30.20 in 10.0 mi Variable 5.8 mph - N/A   Mostly Cloudy
3:58 PM 75.0 °F 60.4 °F 60% 30.18 in 10.0 mi South 10.4 mph - N/A   Overcast
4:58 PM 75.2 °F 61.7 °F 63% 30.17 in 10.0 mi ESE 8.1 mph - N/A   Mostly Cloudy
5:58 PM 76.6 °F 63.1 °F 63% 30.12 in 10.0 mi SSE 12.7 mph - N/A   Clear
6:58 PM 75.9 °F 63.0 °F 64% 30.11 in 10.0 mi SSE 10.4 mph - N/A   Clear
7:58 PM 72.7 °F 62.4 °F 70% 30.10 in 10.0 mi SSE 8.1 mph - N/A   Clear
8:58 PM 69.3 °F 61.7 °F 77% 30.11 in 10.0 mi SE 5.8 mph - N/A   Clear
9:58 PM 65.3 °F 61.3 °F 87% 30.12 in 10.0 mi SE 4.6 mph - N/A   Clear
10:58 PM 64.6 °F 60.8 °F 88% 30.13 in 10.0 mi SE 5.8 mph - N/A   Clear
11:58 PM 63.5 °F 59.7 °F 87% 30.14 in 10.0 mi ESE 5.8 mph - N/A   Clear